Nuiqsut, AK

5:23 AM AKDT on October 17, 2017 (GMT -0800)
Nuiqsut

Weather History for PAQT - March, 2014

Change the Weather History Date:

Tuesday, March 11, 2014

  Actual Average (PAKU) Record (PAKU)
Temperature  
Mean Temperature -24 °F -  
Max Temperature -9 °F -7 °F 29 °F (1988)
Min Temperature -38 °F -17 °F -49 °F (1999)
Degree Days  
Heating Degree Days 88    
Moisture  
Dew Point -20 °F    
Average Humidity 81    
Maximum Humidity 87    
Minimum Humidity 77    
Precipitation  
Precipitation 0.00 in - - ()
Sea Level Pressure  
Sea Level Pressure 29.58 in    
Wind  
Wind Speed 7 mph (NE)    
Max Wind Speed 15 mph    
Max Gust Speed -    
Visibility 4 miles    
Events Snow    
Averages and records for this station are not official NWS values.
T = Trace of Precipitation, MM = Missing Value Source: NWS Daily Summary

Daily Weather History Graph

Daily Weather History Graph

Search for Another Location

Airport or City:

Trip Planner

Search our weather history database for the weather conditions in past years. The results will help you decide how hot, cold, wet, or windy it might be!

Date:

Astronomy

Mar. 11, 2014 Rise Set
Actual Time 8:43 AM AKDT 7:46 PM AKDT
Civil Twilight 7:42 AM AKDT 8:47 PM AKDT
Nautical Twilight 6:29 AM AKDT 10:01 PM AKDT
Astronomical Twilight 5:03 AM AKDT 11:29 PM AKDT
Moon 1:19 PM AKDT (3/11) 8:00 AM AKDT (3/11)
Length of Visible Light 13h 04m
Length of Day
11h 02m
Waxing Gibbous, 79% of the Moon is Illuminated
Mar 11
Waxing Gibbous
Mar 16
Full
Mar 23
Last Quarter
Mar 30
New
Apr 7
First Quarter

Hourly Weather History & Observations

Time (AKDT) Temp. Windchill Dew Point Humidity Pressure Visibility Wind Dir Wind Speed Gust Speed Precip Events Conditions
12:09 AM -38.0 °F -56.7 °F - N/A% 29.79 in 1.5 mi NNE 5.8 mph - N/A   Clear
12:33 AM -36.9 °F -57.4 °F - N/A% 29.78 in 1.5 mi NNE 6.9 mph - N/A   Mostly Cloudy
12:53 AM -36.9 °F -55.4 °F - N/A% 29.77 in 1.0 mi NNE 5.8 mph - N/A   Overcast
1:10 AM -36.0 °F -52.0 °F - N/A% 29.76 in 2.0 mi NNE 4.6 mph - N/A   Scattered Clouds
1:20 AM -36.0 °F -52.0 °F - N/A% 29.76 in 1.8 mi NNE 4.6 mph - N/A   Partly Cloudy
1:53 AM -36.9 °F - - N/A% 29.76 in 3.0 mi Calm Calm - N/A   Partly Cloudy
2:21 AM -38.0 °F - - N/A% 29.76 in 7.0 mi Calm Calm - N/A   Mostly Cloudy
2:36 AM -36.9 °F - - N/A% 29.76 in 1.8 mi Calm Calm - N/A   Overcast
2:43 AM -36.0 °F -49.0 °F - N/A% 29.75 in 1.0 mi NW 3.5 mph - N/A   Mostly Cloudy
2:53 AM -36.0 °F -52.0 °F - N/A% 29.75 in 1.2 mi NNW 4.6 mph - N/A   Scattered Clouds
3:10 AM -35.0 °F -55.0 °F - N/A% 29.74 in 3.0 mi North 6.9 mph - N/A   Clear
3:53 AM -33.0 °F -54.3 °F - N/A% 29.73 in 10.0 mi North 8.1 mph - N/A   Clear
4:53 AM -32.1 °F -47.3 °F - N/A% 29.70 in 10.0 mi NE 4.6 mph - N/A   Clear
5:06 AM -33.0 °F -50.7 °F - N/A% 29.69 in 4.0 mi NE 5.8 mph - N/A   Haze
5:23 AM -31.0 °F -54.7 °F - N/A% 29.68 in 7.0 mi NE 10.4 mph - N/A   Scattered Clouds
5:53 AM -31.0 °F -51.9 °F - N/A% 29.67 in 9.0 mi NE 8.1 mph - N/A   Clear
6:53 AM -29.0 °F -51.0 °F -34.1 °F 77% 29.65 in 4.0 mi NE 9.2 mph - N/A   Haze
7:53 AM -27.0 °F -51.0 °F -31.0 °F 81% 29.62 in 5.0 mi NE 11.5 mph - N/A   Partly Cloudy
8:46 AM -26.0 °F -45.8 °F -29.9 °F 81% 29.60 in 4.0 mi NNE 8.1 mph - N/A   Mostly Cloudy
8:49 AM -25.6 °F -45.4 °F -29.2 °F 83% 29.60 in 2.5 mi NNE 8.1 mph - N/A   Mostly Cloudy
8:53 AM -26.0 °F -45.8 °F -29.9 °F 81% 29.60 in 1.8 mi NNE 8.1 mph - N/A   Mostly Cloudy
9:02 AM -26.0 °F -45.8 °F -29.9 °F 81% 29.59 in 3.0 mi NNE 8.1 mph - N/A   Overcast
9:09 AM -25.1 °F -44.7 °F -29.9 °F 78% 29.59 in 3.0 mi NNE 8.1 mph - N/A   Haze
9:24 AM -25.1 °F -43.1 °F -29.0 °F 82% 29.59 in 5.0 mi NNE 6.9 mph - N/A   Partly Cloudy
9:53 AM -23.1 °F -42.3 °F -27.0 °F 82% 29.58 in 5.0 mi NNE 8.1 mph - N/A   Partly Cloudy
10:53 AM -20.0 °F -38.6 °F -24.0 °F 82% 29.57 in 10.0 mi NNE 8.1 mph - N/A   Mostly Cloudy
11:09 AM -18.9 °F -40.8 °F -24.0 °F 78% 29.56 in 3.0 mi NE 11.5 mph - N/A   Haze
11:53 AM -17.0 °F -40.2 °F -22.0 °F 78% 29.55 in 10.0 mi NE 13.8 mph - N/A   Overcast
12:53 PM -16.1 °F -39.1 °F -20.9 °F 79% 29.55 in 3.0 mi NE 13.8 mph - 0.00 in   Overcast
12:59 PM -16.1 °F -37.2 °F -20.9 °F 79% 29.54 in 1.8 mi NE 11.5 mph - 0.00 in   Overcast
1:07 PM -16.1 °F -38.2 °F -20.0 °F 82% 29.54 in 2.5 mi NE 12.7 mph - 0.00 in   Overcast
1:15 PM -16.1 °F -39.9 °F -20.0 °F 82% 29.53 in 3.0 mi NE 15.0 mph - 0.00 in   Overcast
1:35 PM -15.0 °F -38.5 °F -20.0 °F 78% 29.53 in 2.5 mi NE 15.0 mph - 0.00 in Snow Light Snow
1:53 PM -15.0 °F -37.7 °F -18.9 °F 82% 29.54 in 2.5 mi NE 13.8 mph - 0.00 in Snow Light Snow
2:00 PM -14.1 °F -35.7 °F -18.9 °F 79% 29.53 in 5.0 mi NE 12.7 mph - 0.00 in   Overcast
2:32 PM -13.0 °F -34.3 °F -18.0 °F 78% 29.51 in 3.0 mi NE 12.7 mph - 0.00 in Snow Light Snow
2:53 PM -13.0 °F -33.4 °F -17.0 °F 82% 29.51 in 10.0 mi NE 11.5 mph - 0.00 in   Overcast
3:46 PM -11.9 °F -32.0 °F -17.0 °F 78% 29.50 in 2.0 mi NE 11.5 mph - 0.00 in Snow Light Snow
3:53 PM -11.9 °F -32.0 °F -17.0 °F 78% 29.51 in 1.5 mi NE 11.5 mph - 0.00 in Snow Light Snow
4:16 PM -11.9 °F -32.0 °F -16.1 °F 82% 29.50 in 0.8 mi NE 11.5 mph - 0.00 in Snow Light Snow
4:23 PM -11.9 °F -32.0 °F -16.1 °F 82% 29.49 in 1.2 mi ENE 11.5 mph - 0.00 in Snow Light Snow
4:36 PM -11.0 °F -30.9 °F -16.1 °F 78% 29.49 in 2.0 mi ENE 11.5 mph - 0.00 in Snow Light Snow
4:45 PM -11.0 °F -29.9 °F -16.1 °F 78% 29.49 in 1.5 mi NE 10.4 mph - 0.00 in Snow Light Snow
4:53 PM -11.0 °F -28.8 °F -16.1 °F 78% 29.49 in 1.2 mi NE 9.2 mph - 0.00 in Snow Light Snow
5:53 PM -11.0 °F -30.9 °F -15.0 °F 83% 29.48 in 1.0 mi NE 11.5 mph - 0.00 in Snow Light Snow
6:31 PM -11.0 °F -28.8 °F -15.0 °F 83% 29.46 in 0.8 mi NE 9.2 mph - 0.00 in Snow Light Snow
6:39 PM -11.0 °F -27.6 °F -15.0 °F 83% 29.46 in 1.0 mi NE 8.1 mph - 0.00 in Snow Light Snow
6:53 PM -11.0 °F -26.2 °F -15.0 °F 83% 29.47 in 1.8 mi NE 6.9 mph - 0.00 in Snow Light Snow
7:13 PM -11.0 °F -24.6 °F -14.1 °F 86% 29.46 in 2.0 mi NE 5.8 mph - 0.00 in Snow Light Snow
7:38 PM -11.0 °F -26.2 °F -14.1 °F 86% 29.46 in 3.0 mi NE 6.9 mph - 0.00 in Snow Light Snow
7:53 PM -11.0 °F -26.2 °F -14.1 °F 86% 29.47 in 3.0 mi NE 6.9 mph - 0.00 in Snow Light Snow
8:00 PM -11.0 °F -26.2 °F -14.1 °F 86% 29.46 in 1.8 mi NE 6.9 mph - 0.00 in Snow Light Snow
8:24 PM -9.9 °F -26.3 °F -14.1 °F 82% 29.46 in 2.0 mi NE 8.1 mph - 0.00 in Snow Light Snow
8:41 PM -11.0 °F -28.8 °F -15.0 °F 83% 29.46 in 4.0 mi NE 9.2 mph - 0.00 in Snow Light Snow
8:53 PM -11.0 °F -26.2 °F -15.0 °F 83% 29.47 in 6.0 mi NE 6.9 mph - 0.00 in   Mostly Cloudy
9:53 PM -13.0 °F -28.6 °F -17.0 °F 82% 29.46 in 10.0 mi NNE 6.9 mph - N/A   Clear
10:53 PM -14.1 °F -29.9 °F -17.0 °F 87% 29.45 in 10.0 mi NNE 6.9 mph - N/A   Clear
11:53 PM -16.1 °F -30.6 °F -18.9 °F 87% 29.46 in 10.0 mi NNE 5.8 mph - N/A   Clear